Regional Weather Roundup
Issued by NWS

Home | Current Version | Previous Version | Text Only | Print | Product List | Glossary On
Versions: 1 2 3 4 5 6 7 8 9 10 11 12 13 14 15 16 17 18 19 20 21 22 23 24 25 26 27 28 29 30 31 32 33 34 35 36 37 38 39 40 41 42 43 44 45 46 47 48 49 50
000
ASUS42 KFFC 291010
RWRGA
WEATHER ROUNDUP FOR GEORGIA
NATIONAL WEATHER SERVICE PEACHTREE CITY GA
600 AM EDT MON MAY 29 2017

NOTE: "FAIR" INDICATES FEW OR NO CLOUDS BELOW 12,000 FEET WITH NO
SIGNIFICANT WEATHER AND/OR OBSTRUCTIONS TO VISIBILITY.

* = USE WITH CAUTION. THE STATIONS MARKED WITH AN ASTERISK MAY NOT
REPORT WEATHER SUCH AS PRECIPITATION, FOG, OR THUNDER AND ARE NOT
QUALITY CONTROLLED BY NWS.

THE REMARK "TC" DENOTES TEMPERATURE READING IN DEGREES CELSIUS.

GAZ001>058-291100-
NORTH GEORGIA

CITY           SKY/WX    TMP DP  RH WIND       PRES   REMARKS
ATLANTA        CLOUDY    70  65  84 NW8       29.99S
ATHENS         PTCLDY    68  65  90 W5        29.97S
CHAMBLEE       MOCLDY    69  64  84 W6        30.00R
PEACHTREE CITY CLOUDY    69  66  90 NW3       30.00S
ROME           CLOUDY    68  67  96 CALM      29.98F
WEST ATLANTA   CLOUDY    70  66  87 W5        29.99S
GAINESVILLE    PTCLDY    67  65  93 W7        30.01S
CARTERSVILLE   CLOUDY    67  67 100 CALM      29.99F


CITY           SKY/WX    TMP DP  RH WIND       PRES   REMARKS
DALTON*        CLOUDY    64  64 100 CALM      30.00S
MARIETTA       MOCLDY    69  65  87 W6        29.99F
CANTON*        CLOUDY    64  61  88 CALM      30.02R
$$

GAZ059>098-102>109-291100-
CENTRAL GEORGIA

CITY           SKY/WX    TMP DP  RH WIND       PRES   REMARKS
AUGUSTA-BUSH   PTCLDY    72  67  84 W5        29.95R
AUGUSTA-DANIEL PTCLDY    74  63  68 W7        29.96S
COLUMBUS       CLOUDY    73  65  75 NW3       29.98S
MACON          CLOUDY    69  66  90 W5        29.99R
ROBINS AFB     CLOUDY    71  67  89 CALM      29.98S


CITY           SKY/WX    TMP DP  RH WIND       PRES   REMARKS
LAGRANGE*      CLOUDY    67  67 100 CALM      30.00F
SYLVANIA*      PTCLDY    72  70  95 NW5       29.97R
MILLEDGEVILLE* CLOUDY    68  68 100 CALM      29.98R
$$

GAZ099>101-110>166-291100-
SOUTH GEORGIA

CITY           SKY/WX    TMP DP  RH WIND       PRES   REMARKS
SAVANNAH       MOCLDY    72  67  84 W6        29.96R
VALDOSTA       PTCLDY    73  71  93 CALM      30.00S
ALMA           CLOUDY    75  71  87 SW3       29.98R
ST SIMONS      PTCLDY    77  74  90 SW8       29.97R
FT STEWART     PTCLDY    74  68  82 W5        29.95R
ALBANY         CLOUDY    74  73  97 CALM      30.01S
HUNTER AFB     CLEAR     73  71  96 CALM      29.94R
MOODY AFB      PTCLDY    75  71  88 W6        29.99R
BRUNSWICK      PTCLDY    77  73  88 SW7       29.98R


CITY           SKY/WX    TMP DP  RH WIND       PRES   REMARKS
BAINBRIDGE*    MOCLDY    73  72  94 CALM      30.00F
MOULTRIE*      CLOUDY    73  72  94 W3        30.01S
VIDALIA*       PTCLDY    75  70  83 W6        29.98S
WAYCROSS*      CLOUDY    76  76 100 W5        29.99R
DOUGLAS*       CLOUDY    73  72  94 W5        30.01R
$$



USA.gov is the U.S. government's official web portal to all federal, state and local government web resources and services.